Stations météo

Publicité
Rouen, France (7037): Température de l'air & dewpoint: 15.10.2017 19:00:00 - 21.10.2017 19:00:00 (CEST)Rouen, France (7037): Température de l'air 5cm: 15.10.2017 19:00:00 - 21.10.2017 19:00:00 (CEST)Rouen, France (7037): Température de l'air -20cm & Température de l'air -100cm: 15.10.2017 19:00:00 - 21.10.2017 19:00:00 (CEST)Rouen, France (7037): Vitesse du vent & gusts: 15.10.2017 19:00:00 - 21.10.2017 19:00:00 (CEST)Rouen, France (7037): Direction du vent: 15.10.2017 19:00:00 - 21.10.2017 19:00:00 (CEST)Rouen, France (7037): reduced air pressure: 15.10.2017 19:00:00 - 21.10.2017 19:00:00 (CEST)Rouen, France (7037): visibility: 15.10.2017 19:00:00 - 21.10.2017 19:00:00 (CEST)Rouen, France (7037): Ensoleillement: 15.10.2017 19:00:00 - 21.10.2017 19:00:00 (CEST)Rouen, France (7037): Quantités de précipitations: 15.10.2017 19:00:00 - 21.10.2017 19:00:00 (CEST)
Date & Time tt [°C] td [°C] tt 5cm [°C] tt -20cm [°C] tt -100cm [°C] ff [km/h] ff [knt] fx [km/h] fx [knt] dd ppp [hPa] vv [km] sd [min] rr [mm]
21.10.2017 19:00:00 12,6 6,0 10,8 14,5 15,0 31 17 55 30 WSW 1012,0 60 0 0,0
21.10.2017 18:00:00 13,8 6,6 13,7 14,5 15,1 32 17 50 27 SW 1011,4 48 32 0,0
21.10.2017 17:00:00 15,2 6,7 14,2 14,4 15,1 32 17 57 31 SW 1011,4 39 47 0,0
21.10.2017 16:00:00 14,7 6,5 13,8 14,3 15,1 37 20 55 30 WSW 1011,5 44 8 0,0
21.10.2017 15:00:00 16,2 6,3 16,1 14,3 15,1 34 18 59 32 WSW 1011,3 20 25 0,0
21.10.2017 14:00:00 15,0 6,8 14,8 14,2 15,1 29 16 56 30 SW 1011,6 49 32 0,0
21.10.2017 13:00:00 15,5 7,0 16,6 14,2 15,1 37 20 61 33 SW 1011,6 20 34 0,0
21.10.2017 12:00:00 14,9 8,4 15,8 14,2 15,1 36 20 55 30 SW 1011,9 20 23 0,0
21.10.2017 11:00:00 14,5 9,1 14,0 14,2 15,1 31 17 46 25 SW 1011,8 19 55 0,0
21.10.2017 10:00:00 13,0 9,6 11,7 14,2 15,1 25 13 40 22 SSW 1011,5 36 9 0,0
21.10.2017 09:00:00 12,5 9,9 11,9 14,3 15,1 24 13 38 20 SW 1011,1 58 0 0,0
21.10.2017 08:00:00 13,3 10,8 12,7 14,3 15,1 26 14 41 22 SW 1010,3 10 0 0,0
21.10.2017 07:00:00 13,5 12,2 12,7 14,3 15,1 24 13 48 26 SSW 1010,0 46 0 0,4
21.10.2017 06:00:00 13,5 11,9 12,0 14,3 15,1 25 13 37 20 SSW 1009,2 19 0 0,0
21.10.2017 05:00:00 12,6 10,8 11,8 14,4 15,1 24 13 36 19 S 1008,9 10 0 0,2
21.10.2017 04:00:00 12,6 10,7 11,7 14,5 15,1 23 12 35 19 S 1009,4 18 0 0,4
21.10.2017 03:00:00 12,8 9,6 11,7 14,5 15,1 18 10 31 17 S 1009,7 58 0 0,0
21.10.2017 02:00:00 12,3 8,8 11,3 14,5 15,1 21 11 34 18 S 1010,7 56 0 0,0
21.10.2017 01:00:00 12,1 8,0 11,1 14,6 15,1 22 12 39 21 S 1011,4 54 0 0,0
21.10.2017 00:00:00 11,5 7,8 10,1 14,7 15,1 24 13 46 25 S 1011,9 49 0 0,0
20.10.2017 23:00:00 10,8 7,5 9,1 14,7 15,1 15 8 24 13 S 1012,5 49 0 0,0
20.10.2017 22:00:00 10,5 7,4 9,6 14,8 15,1 14 8 23 12 SSE 1013,0 47 0 0,0
20.10.2017 21:00:00 11,1 7,2 10,2 14,8 15,1 15 8 20 11 SSE 1013,2 48 0 0,0
20.10.2017 20:00:00 11,9 7,0 8,9 14,8 15,1 13 7 19 10 S 1013,5 56 0 0,0
20.10.2017 19:00:00 12,3 6,8 9,6 14,8 15,1 13 7 27 15 SSW 1013,6 5 0 0,0
20.10.2017 18:00:00 14,2 6,3 14,1 14,7 15,1 21 11 37 20 SW 1013,6 50 28 0,0
20.10.2017 17:00:00 15,0 6,3 15,2 14,7 15,1 23 12 46 25 SW 1013,5 19 22 0,0
20.10.2017 16:00:00 15,7 6,7 15,3 14,6 15,1 23 12 45 24 SW 1013,1 51 31 0,0
20.10.2017 15:00:00 14,6 7,4 14,7 14,6 15,1 24 13 37 20 SW 1013,1 49 10 0,0
20.10.2017 14:00:00 15,6 8,8 14,8 14,6 15,1 29 16 48 26 WSW 1013,2 10 36 0,0
20.10.2017 13:00:00 13,8 7,6 14,0 14,6 15,1 33 18 51 28 WSW 1013,3 24 35 0,0
20.10.2017 12:00:00 13,5 8,3 13,9 14,6 15,1 29 16 48 26 WSW 1012,7 20 50 0,0
20.10.2017 11:00:00 12,1 8,2 11,0 14,6 15,1 27 15 44 24 SW 1011,9 20 39 0,0
20.10.2017 10:00:00 10,7 7,9 9,1 14,8 15,1 27 14 39 21 SW 1011,1 20 4 0,0
20.10.2017 09:00:00 9,2 7,3 8,6 14,8 15,1 22 12 35 19 SSW 1010,4 35 0 0,0
20.10.2017 08:00:00 9,3 7,6 8,5 14,9 15,1 23 12 36 19 SSW 1009,3 56 0 0,0
20.10.2017 07:00:00 9,4 7,7 8,6 15,0 15,2 24 13 40 21 SSW 1008,8 57 0 0,0
20.10.2017 06:00:00 10,0 8,1 9,2 15,0 15,1 28 15 39 21 SSW 1008,0 60 0 0,0
20.10.2017 05:00:00 10,8 9,1 9,9 15,1 15,1 24 13 35 19 SW 1007,3 60 0 0,0
20.10.2017 04:00:00 12,0 10,9 11,2 15,1 15,1 19 10 31 17 SW 1006,6 60 0 0,0
20.10.2017 03:00:00 12,6 11,7 12,1 15,2 15,1 22 12 50 27 SSW 1006,0 10 0 0,4
20.10.2017 02:00:00 12,7 11,6 12,2 15,2 15,1 32 17 50 27 SSW 1005,7 8 0 0,8
20.10.2017 01:00:00 12,9 11,6 12,5 15,2 15,1 28 15 58 32 S 1005,2 10 0 2,4
20.10.2017 00:00:00 13,8 12,2 13,2 15,3 15,1 24 13 52 28 S 1006,3 6 0 1,6
19.10.2017 23:00:00 15,0 11,0 14,5 15,3 15,1 23 12 36 20 S 1005,7 58 0 0,0
19.10.2017 22:00:00 15,5 11,1 14,8 15,3 15,1 27 14 39 21 S 1005,6 58 0 0,0
19.10.2017 21:00:00 15,8 11,2 15,1 15,3 15,1 21 12 36 20 S 1005,5 59 0 0,0
19.10.2017 20:00:00 15,9 11,1 15,2 15,2 15,1 18 10 31 17 S 1005,8 60 0 0,0
19.10.2017 19:00:00 16,6 11,1 15,9 15,2 15,1 17 9 33 18 S 1005,8 60 0 0,0
19.10.2017 18:00:00 17,7 11,7 17,3 15,1 15,1 21 11 40 21 S 1006,0 57 23 0,0
19.10.2017 17:00:00 19,0 13,2 18,9 15,0 15,1 19 11 35 19 S 1005,9 29 41 0,0
19.10.2017 16:00:00 17,8 13,1 18,3 15,0 15,1 20 11 41 22 S 1006,2 47 0 0,0
19.10.2017 15:00:00 18,3 12,7 19,1 14,9 15,1 25 14 48 26 SSW 1006,3 50 1 0,0
19.10.2017 14:00:00 18,7 13,1 18,6 14,8 15,1 35 19 47 26 SW 1006,7 38 11 0,0
19.10.2017 13:00:00 18,9 13,5 20,1 14,7 15,1 16 9 32 18 SSE 1006,8 17 60 0,0
19.10.2017 12:00:00 16,5 13,0 15,1 14,7 15,1 23 12 32 18 SSE 1007,1 19 11 0,0
19.10.2017 11:00:00 14,7 12,0 14,4 14,8 15,1 21 11 32 17 SSE 1007,4 20 13 0,0
19.10.2017 10:00:00 13,9 11,9 12,2 14,9 15,2 20 11 29 16 SSE 1007,8 18 7 0,0
19.10.2017 09:00:00 12,6 11,3 11,5 14,9 15,1 14 8 25 13 SE 1007,8 14 0 0,0
19.10.2017 08:00:00 12,2 11,1 10,5 15,0 15,1 15 8 26 14 SE 1007,5 12 0 0,0
19.10.2017 07:00:00 11,0 10,2 7,2 15,1 15,1 11 6 16 9 E 1007,9 6 0 0,0
19.10.2017 06:00:00 10,9 9,7 8,4 15,2 15,1 10 5 17 9 ESE 1008,4 7 0 0,0
19.10.2017 05:00:00 11,2 10,3 8,0 15,3 15,1 11 6 16 9 ESE 1008,9 8 0 0,0
19.10.2017 04:00:00 11,1 10,2 8,1 15,3 15,1 10 6 14 8 ESE 1009,1 7 0 0,0
19.10.2017 03:00:00 11,7 10,8 8,5 15,4 15,1 10 5 13 7 ENE 1009,6 7 0 0,0
19.10.2017 02:00:00 11,4 10,6 6,6 15,5 15,2 9 5 13 7 E 1009,9 4,5 0 0,0
19.10.2017 01:00:00 11,6 10,5 6,6 15,6 15,1 8 5 11 6 E 1010,7 8 0 0,0
19.10.2017 00:00:00 12,3 11,2 7,5 15,6 15,1 7 4 8 5 SE 1011,2 12 0 0,0
18.10.2017 23:00:00 12,7 11,6 7,7 15,6 15,1 4 2 10 5 SE 1011,5 13 0 0,0
18.10.2017 22:00:00 13,4 11,6 8,8 15,6 15,1 8 4 9 5 SE 1011,1 15 0 0,0
18.10.2017 21:00:00 14,4 12,4 12,0 15,6 15,1 5 3 10 6 SE 1011,2 17 0 0,0
18.10.2017 20:00:00 15,9 13,2 14,9 15,5 15,1 6 3 11 6 SSE 1011,3 20 0 0,0
18.10.2017 19:00:00 17,0 13,3 15,8 15,4 15,1 9 5 16 9 S 1011,0 8 0 0,0
18.10.2017 18:00:00 18,0 14,3 18,3 15,3 15,1 10 5 23 13 SSE 1010,5 20 30 0,0
18.10.2017 17:00:00 20,6 15,8 21,8 15,2 15,1 9 5 16 9 SE 1010,5 10 51 0,0
18.10.2017 16:00:00 19,4 15,1 21,6 15,1 15,1 10 5 15 8 SE 1011,0 10 50 0,0
18.10.2017 15:00:00 19,4 15,9 18,9 15,0 15,1 9 5 16 8 SE 1011,4 10 46 0,0
18.10.2017 14:00:00 16,3 15,0 17,6 15,0 15,1 9 5 22 12 S 1012,1 7 2 0,0
18.10.2017 13:00:00 16,5 15,7 16,7 15,0 15,1 16 9 24 13 S 1012,6 6 10 0,0
18.10.2017 12:00:00 15,6 15,1 13,9 15,0 15,1 8 4 14 8 S 1012,4 10 0 0,4
18.10.2017 11:00:00 13,3 12,8 12,8 15,0 15,1 6 3 25 14 SSE 1012,6 2,9 0 1,8
18.10.2017 10:00:00 12,7 12,2 12,5 15,1 15,1 12 6 21 12 S 1013,0 4,4 0 0,0
18.10.2017 09:00:00 12,4 11,9 11,6 15,1 15,1 11 6 20 11 S 1012,6 3,5 0 0,2
18.10.2017 08:00:00 11,9 11,4 11,7 15,1 15,1 12 7 17 9 SSE 1012,4 0,3 0 0,0
18.10.2017 07:00:00 12,0 11,5 11,8 15,2 15,1 10 5 19 10 SE 1012,5 0,1 0 0,0
18.10.2017 06:00:00 12,0 11,5 8,6 15,3 15,1 8 5 10 5 SE 1012,5 0,1 0 0,0
18.10.2017 05:00:00 11,7 11,2 8,6 15,4 15,1 5 3 11 6 ESE 1012,7 0,1 0 0,0
18.10.2017 04:00:00 12,6 12,1 7,5 15,5 15,1 5 3 10 6 ESE 1013,4 0,2 0 0,0
18.10.2017 03:00:00 12,1 11,6 7,2 15,5 15,1 7 4 9 5 ESE 1014,0 0,3 0 0,0
18.10.2017 02:00:00 12,7 12,1 8,0 15,6 15,1 4 2 10 5 E 1014,0 1,2 0 0,0
18.10.2017 01:00:00 12,6 12,0 9,4 15,6 15,1 9 5 14 7 ENE 1014,1 2,6 0 0,0
18.10.2017 00:00:00 13,3 12,7 11,0 15,7 15,1 10 5 17 9 ENE 1014,8 4,7 0 0,0
17.10.2017 23:00:00 13,5 12,7 12,6 15,7 15,1 11 6 17 9 ENE 1015,4 5 0 0,0
17.10.2017 22:00:00 14,3 13,3 13,0 15,7 15,1 14 7 18 10 ENE 1015,5 7 0 0,0
17.10.2017 21:00:00 14,5 12,9 13,7 15,7 15,1 14 7 16 9 NE 1016,0 8 0 0,0
17.10.2017 20:00:00 15,4 13,6 13,6 15,7 15,1 12 6 15 8 ENE 1016,2 10 0 0,0
17.10.2017 19:00:00 16,2 13,3 14,9 15,6 15,1 9 5 11 6 NE 1016,3 13 0 0,0
17.10.2017 18:00:00 18,1 13,6 19,2 15,5 15,1 9 5 14 7 ENE 1016,6 16 44 0,0
17.10.2017 17:00:00 18,7 12,9 20,0 15,4 15,1 6 3 11 6 E 1017,3 18 0 0,0
17.10.2017 16:00:00 18,8 12,5 21,0 15,3 15,1 8 4 11 6 ENE 1017,8 28 8 0,0
17.10.2017 15:00:00 18,6 11,7 21,6 15,2 15,1 8 4 15 8 E 1018,5 33 40 0,0
17.10.2017 14:00:00 - - 19,9 - - 10 5 16 8 E - 44 - -
17.10.2017 13:00:00 16,5 9,9 17,4 15,1 15,1 8 5 13 7 E 1021,0 48 18 0,0
17.10.2017 12:00:00 14,3 11,8 14,2 15,2 15,1 6 4 10 5 E 1021,9 28 2 0,0
17.10.2017 11:00:00 12,6 12,0 12,0 15,3 15,1 5 3 7 4 SE 1022,6 26 0 0,0
17.10.2017 10:00:00 11,5 11,0 7,6 15,4 15,1 4 2 6 3 SE 1022,8 10 0 0,2
17.10.2017 09:00:00 9,7 9,1 4,8 15,5 15,1 6 3 8 4 SE 1022,7 19 0 0,0
17.10.2017 08:00:00 9,2 8,6 4,7 15,6 15,1 4 2 6 4 SE 1022,6 4,0 0 0,0
17.10.2017 07:00:00 9,5 8,9 5,0 15,7 15,1 5 3 8 4 S 1022,6 16 0 0,0
17.10.2017 06:00:00 9,7 8,9 5,1 15,8 15,1 2 1 4 2 SW 1022,4 20 0 0,0
17.10.2017 05:00:00 10,6 9,8 5,8 15,9 15,1 2 1 6 4 WNW 1022,3 27 0 0,0
17.10.2017 04:00:00 11,2 9,5 6,7 16,0 15,0 3 2 13 7 W 1022,7 29 0 0,0
17.10.2017 03:00:00 12,7 10,4 10,6 16,1 15,1 10 5 16 8 W 1022,8 29 0 0,0
17.10.2017 02:00:00 13,5 10,7 10,1 16,1 15,1 10 5 15 8 W 1022,8 29 0 0,0
17.10.2017 01:00:00 13,8 11,0 11,1 16,2 15,0 10 5 18 10 WSW 1022,8 28 0 0,0
17.10.2017 00:00:00 15,2 11,6 14,1 16,2 15,1 15 8 23 13 W 1022,6 32 0 0,0
16.10.2017 23:00:00 16,3 13,2 14,2 16,2 15,0 15 8 21 12 WSW 1022,2 24 0 0,0
16.10.2017 22:00:00 16,0 13,7 12,6 16,3 15,0 13 7 23 12 WSW 1021,7 21 0 0,0
16.10.2017 21:00:00 17,4 13,9 14,4 16,3 15,0 14 8 21 11 WSW 1021,1 22 0 0,0
16.10.2017 20:00:00 18,0 13,9 14,7 16,2 15,0 15 8 19 10 SW 1020,8 22 0 0,0
16.10.2017 19:00:00 19,1 13,9 16,3 16,2 15,0 14 8 22 12 SW 1020,2 21 0 0,0
16.10.2017 18:00:00 21,2 14,4 20,2 16,0 15,0 18 10 26 14 SW 1019,7 22 0 0,0
16.10.2017 17:00:00 23,2 14,7 24,0 15,9 15,0 16 9 33 18 SW 1019,0 10 36 0,0
16.10.2017 16:00:00 24,2 14,3 26,4 15,7 15,0 22 12 37 20 SSW 1018,8 38 60 0,0
16.10.2017 15:00:00 24,7 14,8 25,8 15,6 15,0 27 14 37 20 SW 1018,8 32 60 0,0
16.10.2017 14:00:00 22,9 13,9 24,9 15,5 15,0 17 9 33 18 S 1019,1 36 60 0,0
16.10.2017 13:00:00 21,7 14,3 21,5 15,5 15,0 19 10 40 22 S 1019,2 29 53 0,0
16.10.2017 12:00:00 20,2 13,9 21,5 15,5 15,0 28 15 41 22 SSE 1019,2 29 60 0,0
16.10.2017 11:00:00 18,6 13,7 19,5 15,5 15,0 26 14 41 22 SSE 1019,5 34 60 0,0
16.10.2017 10:00:00 17,2 13,5 16,5 15,6 15,0 22 12 34 18 SSE 1019,7 37 35 0,0
16.10.2017 09:00:00 16,5 13,4 15,7 15,6 15,0 17 9 35 19 SSE 1019,7 40 0 0,0
16.10.2017 08:00:00 16,8 13,3 16,0 15,6 15,0 18 10 31 17 SSE 1019,4 44 0 0,0
16.10.2017 07:00:00 17,1 13,8 15,8 15,6 15,0 14 7 20 11 S 1019,5 39 0 0,0
16.10.2017 06:00:00 17,1 13,8 16,4 15,7 15,0 10 5 23 13 S 1019,7 37 0 0,0
16.10.2017 05:00:00 17,6 14,1 16,8 15,7 15,0 16 9 25 13 S 1019,9 38 0 0,0
16.10.2017 04:00:00 18,0 14,1 16,7 15,7 15,0 13 7 23 12 S 1020,1 35 0 0,0
16.10.2017 03:00:00 18,2 14,3 17,4 15,8 15,0 15 8 25 14 S 1020,5 34 0 0,0
16.10.2017 02:00:00 18,3 14,4 17,6 15,7 15,0 17 9 25 14 S 1020,5 37 0 0,0
16.10.2017 01:00:00 18,5 14,6 17,2 15,8 15,0 16 9 28 15 S 1020,6 37 0 0,0
16.10.2017 00:00:00 18,0 14,7 14,5 15,8 15,0 7 4 18 10 S 1020,8 33 0 0,0
15.10.2017 23:00:00 18,0 14,1 14,8 15,8 15,0 5 3 21 11 SSE 1020,6 33 0 0,0
15.10.2017 22:00:00 19,3 14,8 18,4 15,7 15,0 11 6 23 12 SSE 1020,3 39 0 0,0
15.10.2017 21:00:00 19,3 14,3 18,6 15,7 15,0 14 8 24 13 S 1020,6 38 0 0,0
15.10.2017 20:00:00 20,0 13,9 17,2 15,6 15,0 17 9 27 15 S 1020,6 43 0 0,0
15.10.2017 19:00:00 20,5 13,7 19,0 15,5 15,0 19 10 26 14 S 1020,0 45 0 0,0

tt = Température de l'air
td = dewpoint
tt 5cm = Température de l'air 5cm
tt -20cm = Température de l'air -20cm
tt -100cm = Température de l'air -100cm
ff = Vitesse du vent
fx = gusts
dd = Direction du vent
ppp = reduced air pressure
vv = visibility
sd = Ensoleillement
rr = Quantités de précipitations

stations d'obs. à proximité